�������l�o���
Date,Time,MP-1(��Sv/h),MP-2(��Sv/h),MP-3(��Sv/h),MP-4(��Sv/h),MP-5(��Sv/h),MP-6(��Sv/h),MP-7(��Sv/h),����,����(m/s),���J
2017/03/25,00:00,0.387,0.234,0.396,0.365,0.332,0.195,0.163,���쐼,2.3,��
2017/03/25,00:10,0.388,0.233,0.397,0.365,0.332,0.193,0.164,���쐼,1.9,��
2017/03/25,00:20,0.387,0.234,0.395,0.366,0.332,0.193,0.163,���k��,1.4,��
2017/03/25,00:30,0.387,0.234,0.397,0.366,0.332,0.193,0.164,�k��,1.4,��
2017/03/25,00:40,0.387,0.234,0.397,0.366,0.332,0.194,0.163,�k��,2.3,��
2017/03/25,00:50,0.388,0.234,0.395,0.364,0.333,0.193,0.164,�k�k��,1.5,��
2017/03/25,01:00,0.388,0.233,0.397,0.367,0.333,0.193,0.164,�k��,1.7,��
2017/03/25,01:10,0.387,0.233,0.397,0.365,0.332,0.193,0.163,�k�k��,1.8,��
2017/03/25,01:20,0.386,0.234,0.397,0.365,0.332,0.193,0.163,�k��,2.2,��
2017/03/25,01:30,0.388,0.233,0.396,0.365,0.332,0.193,0.164,���k��,2.5,��
2017/03/25,01:40,0.388,0.235,0.396,0.365,0.333,0.194,0.163,�k��,2.6,��
2017/03/25,01:50,0.388,0.235,0.396,0.367,0.331,0.194,0.163,�k��,4.2,��
2017/03/25,02:00,0.387,0.233,0.397,0.365,0.332,0.194,0.163,�k��,4.5,��
2017/03/25,02:10,0.388,0.233,0.398,0.366,0.331,0.194,0.164,�k�k��,2.0,��
2017/03/25,02:20,0.389,0.234,0.396,0.365,0.332,0.193,0.162,�k��,2.5,��
2017/03/25,02:30,0.388,0.234,0.398,0.365,0.332,0.195,0.163,�k��,3.0,��
2017/03/25,02:40,0.388,0.233,0.397,0.365,0.332,0.194,0.163,�k��,3.0,��
2017/03/25,02:50,0.388,0.233,0.396,0.365,0.331,0.193,0.163,�k��,2.7,��
2017/03/25,03:00,0.388,0.232,0.398,0.364,0.333,0.194,0.163,���k��,4.1,��
2017/03/25,03:10,0.388,0.233,0.396,0.365,0.332,0.193,0.163,���k��,3.4,��
2017/03/25,03:20,0.387,0.233,0.396,0.366,0.332,0.194,0.163,���k��,2.9,��
2017/03/25,03:30,0.387,0.234,0.397,0.365,0.331,0.193,0.164,���k��,4.5,��
2017/03/25,03:40,0.388,0.232,0.396,0.366,0.333,0.194,0.163,�k��,5.5,��
2017/03/25,03:50,0.389,0.234,0.397,0.364,0.331,0.192,0.163,�k��,5.9,��
2017/03/25,04:00,0.387,0.234,0.395,0.365,0.331,0.194,0.164,�k��,5.0,��
2017/03/25,04:10,0.388,0.234,0.396,0.365,0.332,0.192,0.163,�k��,3.9,��
2017/03/25,04:20,0.387,0.233,0.396,0.367,0.332,0.193,0.162,�k��,4.2,��
2017/03/25,04:30,0.387,0.234,0.395,0.365,0.332,0.192,0.164,���k��,5.4,��
2017/03/25,04:40,0.389,0.232,0.395,0.365,0.332,0.194,0.163,���k��,5.1,��
2017/03/25,04:50,0.387,0.234,0.396,0.364,0.331,0.193,0.164,���k��,4.5,��
2017/03/25,05:00,0.387,0.233,0.396,0.364,0.332,0.194,0.163,���k��,3.9,��
2017/03/25,05:10,0.390,0.233,0.397,0.365,0.333,0.194,0.164,���k��,4.2,��
2017/03/25,05:20,0.388,0.234,0.398,0.365,0.332,0.193,0.164,��,3.4,��
2017/03/25,05:30,0.388,0.234,0.398,0.364,0.332,0.193,0.164,��,3.9,��
2017/03/25,05:40,0.389,0.233,0.396,0.364,0.332,0.193,0.163,���k��,4.5,��
2017/03/25,05:50,0.386,0.232,0.396,0.364,0.332,0.192,0.163,���k��,4.8,��
2017/03/25,06:00,0.388,0.232,0.396,0.364,0.332,0.194,0.163,�k��,4.5,��
2017/03/25,06:10,0.385,0.232,0.396,0.365,0.333,0.192,0.164,�k��,3.1,��
2017/03/25,06:20,0.390,0.233,0.396,0.364,0.332,0.193,0.163,�k�k��,3.4,��
2017/03/25,06:30,0.387,0.232,0.395,0.364,0.332,0.194,0.163,�k�k��,4.5,��
2017/03/25,06:40,0.387,0.233,0.396,0.364,0.331,0.193,0.164,�k��,3.9,��
2017/03/25,06:50,0.386,0.233,0.396,0.365,0.332,0.193,0.164,�k��,4.7,��
2017/03/25,07:00,0.387,0.233,0.396,0.366,0.333,0.192,0.163,�k��,4.1,��
2017/03/25,07:10,0.389,0.233,0.397,0.363,0.332,0.193,0.164,�k��,1.7,��
2017/03/25,07:20,0.388,0.234,0.397,0.364,0.331,0.193,0.163,�k�k��,2.7,��
2017/03/25,07:30,0.388,0.234,0.396,0.365,0.333,0.194,0.163,�k,3.2,��
2017/03/25,07:40,0.387,0.233,0.396,0.365,0.333,0.192,0.163,�k�k��,2.5,��
2017/03/25,07:50,0.387,0.233,0.396,0.363,0.332,0.193,0.163,�k�k��,2.9,��
2017/03/25,08:00,0.387,0.232,0.395,0.365,0.332,0.193,0.162,�k,5.2,��
2017/03/25,08:10,0.387,0.232,0.395,0.362,0.333,0.193,0.162,�k,3.6,��
2017/03/25,08:20,0.386,0.232,0.396,0.363,0.333,0.193,0.164,�k,2.8,��
2017/03/25,08:30,0.386,0.232,0.395,0.364,0.332,0.193,0.162,�k�k��,6.2,��
2017/03/25,08:40,0.385,0.232,0.396,0.361,0.331,0.193,0.163,�k,6.7,��
2017/03/25,08:50,0.386,0.232,0.396,0.364,0.333,0.192,0.162,�k�k��,6.6,��
2017/03/25,09:00,0.387,0.232,0.396,0.362,0.332,0.192,0.163,�k�k��,4.7,��
2017/03/25,09:10,0.387,0.232,0.398,0.364,0.331,0.191,0.163,�k�k��,7.3,��
2017/03/25,09:20,0.387,0.233,0.394,0.364,0.333,0.192,0.162,�k��,6.2,��
2017/03/25,09:30,0.389,0.233,0.395,0.364,0.329,0.191,0.163,�k�k��,6.4,��
2017/03/25,09:40,0.387,0.233,0.398,0.362,0.332,0.191,0.163,�k�k��,6.3,��
2017/03/25,09:50,0.387,0.234,0.395,0.364,0.331,0.192,0.163,�k�k��,5.0,��
2017/03/25,10:00,0.387,0.233,0.397,0.364,0.332,0.191,0.163,�k��,7.0,��
2017/03/25,10:10,0.385,0.232,0.396,0.362,0.333,0.192,0.163,�k�k��,6.8,��
2017/03/25,10:20,0.388,0.234,0.396,0.366,0.332,0.192,0.162,�k��,6.7,��
2017/03/25,10:30,0.386,0.232,0.395,0.362,0.334,0.192,0.163,�k��,5.2,��
2017/03/25,10:40,0.386,0.232,0.395,0.367,0.331,0.192,0.163,�k��,5.9,��
2017/03/25,10:50,0.385,0.233,0.396,0.361,0.334,0.191,0.163,�k��,5.3,��
2017/03/25,11:00,0.385,0.233,0.393,0.366,0.333,0.192,0.164,�k��,5.4,��
2017/03/25,11:10,0.388,0.233,0.396,0.363,0.332,0.193,0.163,�k��,4.7,��
2017/03/25,11:20,0.385,0.233,0.392,0.367,0.335,0.194,0.163,���k��,4.9,��
2017/03/25,11:30,0.388,0.233,0.396,0.364,0.332,0.192,0.163,���k��,4.5,��
2017/03/25,11:40,0.386,0.233,0.392,0.366,0.334,0.192,0.164,�k��,5.3,��
2017/03/25,11:50,0.388,0.234,0.395,0.364,0.331,0.192,0.163,�k�k��,5.3,��
2017/03/25,12:00,0.386,0.233,0.393,0.367,0.332,0.192,0.163,�k��,5.7,��
2017/03/25,12:10,0.388,0.234,0.394,0.363,0.331,0.192,0.165,���k��,4.5,��
2017/03/25,12:20,0.387,0.233,0.396,0.366,0.332,0.192,0.164,�k��,3.7,��
2017/03/25,12:30,0.385,0.234,0.395,0.363,0.332,0.192,0.163,���k��,3.9,��
2017/03/25,12:40,0.388,0.233,0.394,0.366,0.333,0.193,0.164,���k��,3.7,��
2017/03/25,12:50,0.385,0.232,0.396,0.363,0.334,0.193,0.165,��,1.9,��
2017/03/25,13:00,0.387,0.234,0.392,0.367,0.330,0.192,0.164,���k��,3.1,��
2017/03/25,13:10,0.386,0.233,0.397,0.365,0.333,0.193,0.163,���k��,2.8,��
2017/03/25,13:20,0.386,0.233,0.393,0.366,0.330,0.192,0.163,���k��,3.3,��
2017/03/25,13:30,0.387,0.234,0.397,0.364,0.332,0.192,0.165,�k��,2.5,��
2017/03/25,13:40,0.387,0.233,0.394,0.365,0.331,0.192,0.163,���k��,2.8,��
2017/03/25,13:50,0.389,0.234,0.396,0.365,0.333,0.192,0.164,��,2.3,��
2017/03/25,14:00,0.386,0.232,0.393,0.365,0.332,0.192,0.163,���k��,2.5,��
2017/03/25,14:10,0.389,0.233,0.395,0.365,0.333,0.193,0.164,���k��,2.2,��
2017/03/25,14:20,0.388,0.234,0.394,0.366,0.332,0.193,0.164,���k��,2.1,��
2017/03/25,14:30,0.389,0.233,0.397,0.366,0.332,0.193,0.163,���쓌,1.1,��
2017/03/25,14:40,0.387,0.234,0.396,0.368,0.334,0.191,0.165,��,2.3,��
2017/03/25,14:50,0.388,0.235,0.396,0.366,0.334,0.193,0.164,���k��,1.7,��
2017/03/25,15:00,0.389,0.234,0.399,0.367,0.334,0.193,0.164,���k��,3.1,��
2017/03/25,15:10,0.389,0.234,0.397,0.367,0.334,0.193,0.164,��,2.5,��
2017/03/25,15:20,0.388,0.234,0.397,0.366,0.331,0.193,0.164,��,1.5,��
2017/03/25,15:30,0.390,0.233,0.396,0.368,0.334,0.194,0.165,��,1.4,��
2017/03/25,15:40,0.388,0.233,0.396,0.366,0.333,0.192,0.165,��,0.7,��
2017/03/25,15:50,0.389,0.233,0.397,0.365,0.331,0.193,0.164,�쓌,1.1,��
2017/03/25,16:00,0.387,0.233,0.398,0.367,0.335,0.194,0.164,�쓌,1.1,��
2017/03/25,16:10,0.386,0.233,0.395,0.366,0.331,0.193,0.164,��쓌,1.4,��
2017/03/25,16:20,0.389,0.234,0.396,0.366,0.333,0.192,0.164,��쓌,1.4,��
2017/03/25,16:30,0.387,0.234,0.397,0.368,0.332,0.193,0.164,��쓌,1.8,��
2017/03/25,16:40,0.388,0.233,0.399,0.366,0.332,0.193,0.164,�쓌,0.9,��
2017/03/25,16:50,0.389,0.233,0.397,0.367,0.334,0.193,0.164,��쓌,1.7,��
2017/03/25,17:00,0.389,0.233,0.396,0.367,0.332,0.194,0.164,��,1.2,��
2017/03/25,17:10,0.388,0.234,0.398,0.367,0.332,0.194,0.165,�k��,0.5,��
2017/03/25,17:20,0.389,0.234,0.397,0.367,0.333,0.193,0.164,-,CALM,��
2017/03/25,17:30,0.388,0.233,0.397,0.366,0.333,0.193,0.164,-,CALM,��
2017/03/25,17:40,0.386,0.233,0.397,0.367,0.333,0.193,0.164,-,CALM,��
2017/03/25,17:50,0.386,0.232,0.397,0.366,0.334,0.194,0.163,-,CALM,��
2017/03/25,18:00,0.389,0.233,0.397,0.365,0.334,0.193,0.164,��쐼,0.6,��
2017/03/25,18:10,0.389,0.232,0.399,0.366,0.334,0.194,0.164,�쐼,0.7,��
2017/03/25,18:20,0.388,0.234,0.397,0.367,0.332,0.193,0.164,��쐼,0.7,��
2017/03/25,18:30,0.387,0.232,0.396,0.366,0.333,0.194,0.165,-,CALM,��
2017/03/25,18:40,0.389,0.235,0.397,0.366,0.332,0.193,0.164,-,CALM,��
2017/03/25,18:50,0.388,0.234,0.398,0.367,0.331,0.193,0.164,-,CALM,��
2017/03/25,19:00,0.389,0.234,0.398,0.367,0.331,0.194,0.164,-,CALM,��
2017/03/25,19:10,0.389,0.234,0.397,0.366,0.334,0.194,0.165,�쐼,1.1,��
2017/03/25,19:20,0.387,0.234,0.398,0.365,0.334,0.194,0.165,���쐼,0.6,��
2017/03/25,19:30,0.388,0.234,0.397,0.368,0.333,0.193,0.164,-,CALM,��
2017/03/25,19:40,0.387,0.235,0.398,0.368,0.333,0.193,0.164,�쐼,2.5,��
2017/03/25,19:50,0.388,0.234,0.395,0.367,0.334,0.194,0.165,��쐼,4.0,��
2017/03/25,20:00,0.389,0.234,0.397,0.366,0.333,0.194,0.163,��쐼,3.6,��
2017/03/25,20:10,0.388,0.233,0.397,0.368,0.332,0.194,0.164,��쐼,4.0,��
2017/03/25,20:20,0.387,0.234,0.398,0.367,0.334,0.193,0.164,��쐼,4.1,��
2017/03/25,20:30,0.389,0.233,0.399,0.366,0.332,0.194,0.164,��쐼,4.8,��
2017/03/25,20:40,0.389,0.233,0.398,0.367,0.333,0.193,0.164,��쐼,4.3,��
2017/03/25,20:50,0.387,0.234,0.398,0.367,0.334,0.194,0.164,��쐼,2.9,��
2017/03/25,21:00,0.388,0.234,0.398,0.366,0.333,0.193,0.164,��쐼,3.6,��
2017/03/25,21:10,0.390,0.233,0.397,0.366,0.333,0.193,0.164,��쐼,3.4,��
2017/03/25,21:20,0.387,0.233,0.398,0.367,0.333,0.194,0.164,�쐼,3.3,��
2017/03/25,21:30,0.387,0.234,0.397,0.369,0.333,0.194,0.164,��쐼,2.7,��
2017/03/25,21:40,0.389,0.234,0.398,0.366,0.335,0.193,0.165,��쐼,2.2,��
2017/03/25,21:50,0.389,0.233,0.398,0.366,0.334,0.194,0.165,��쐼,2.0,��
2017/03/25,22:00,0.390,0.233,0.398,0.368,0.332,0.193,0.164,��쐼,3.0,��
2017/03/25,22:10,0.387,0.233,0.398,0.366,0.333,0.194,0.164,��쐼,2.6,��
2017/03/25,22:20,0.389,0.234,0.397,0.366,0.334,0.194,0.165,��쐼,2.8,��
2017/03/25,22:30,0.389,0.233,0.398,0.367,0.332,0.194,0.165,��쐼,3.4,��
2017/03/25,22:40,0.389,0.234,0.398,0.366,0.332,0.194,0.165,��쐼,2.8,��
2017/03/25,22:50,0.389,0.235,0.398,0.368,0.334,0.193,0.164,��쐼,2.9,��
2017/03/25,23:00,0.388,0.233,0.398,0.367,0.335,0.194,0.165,��쐼,1.7,��
2017/03/25,23:10,0.390,0.233,0.398,0.366,0.333,0.194,0.165,��쐼,1.3,��
2017/03/25,23:20,0.388,0.235,0.398,0.366,0.334,0.195,0.165,��쐼,0.6,��
2017/03/25,23:30,0.387,0.234,0.397,0.368,0.332,0.193,0.164,��,1.2,��
2017/03/25,23:40,0.390,0.234,0.397,0.365,0.334,0.193,0.165,�쐼,1.8,��
2017/03/25,23:50,0.389,0.233,0.399,0.366,0.332,0.193,0.165,�쐼,1.8,��
